Time,TemperatureF,DewpointF,PressureIn,WindDirection,WindDirectionDegrees,WindSpeedMPH,WindSpeedGustMPH,Humidity,HourlyPrecipIn,Conditions,Clouds,dailyrainin,SoftwareType,DateUTC
2013-01-06 00:01:00,30.4,23.8,30.14,NW,318,0.0,0.0,76,0.00,,FEW120,0.00,VWS V14.01,2013-01-06 05:01:00,
2013-01-06 00:02:00,30.4,23.8,30.14,NW,318,0.0,0.0,76,0.00,,FEW120,0.00,VWS V14.01,2013-01-06 05:02:00,
2013-01-06 00:06:00,30.4,23.8,30.15,NW,318,0.0,0.0,76,0.00,,FEW120,0.00,VWS V14.01,2013-01-06 05:06:00,
2013-01-06 00:11:00,30.4,24.1,30.15,NW,318,0.0,0.0,77,0.00,,FEW120,0.00,VWS V14.01,2013-01-06 05:11:00,
2013-01-06 00:16:00,30.4,24.1,30.15,NW,318,0.0,0.0,77,0.00,,FEW120,0.00,VWS V14.01,2013-01-06 05:16:00,
2013-01-06 00:21:00,30.4,23.8,30.14,NW,318,0.0,0.0,76,0.00,,FEW120,0.00,VWS V14.01,2013-01-06 05:21:00,
2013-01-06 00:26:00,30.4,23.8,30.14,NW,318,0.0,0.0,76,0.00,,FEW120,0.00,VWS V14.01,2013-01-06 05:26:00,
2013-01-06 00:31:00,30.6,24.0,30.14,NW,318,0.0,0.0,76,0.00,,FEW120,0.00,VWS V14.01,2013-01-06 05:31:00,
2013-01-06 00:36:00,30.6,24.0,30.14,NW,318,0.0,0.0,76,0.00,,OVC100,0.00,VWS V14.01,2013-01-06 05:36:00,
2013-01-06 00:41:00,30.6,24.0,30.14,NW,318,0.0,0.0,76,0.00,,OVC100,0.00,VWS V14.01,2013-01-06 05:41:00,
2013-01-06 00:46:00,30.6,24.3,30.14,NW,318,0.0,0.0,77,0.00,,OVC100,0.00,VWS V14.01,2013-01-06 05:46:00,
2013-01-06 00:51:00,30.6,24.3,30.12,NW,318,0.0,0.0,77,0.00,,OVC100,0.00,VWS V14.01,2013-01-06 05:51:00,
2013-01-06 00:56:00,30.6,24.6,30.12,NW,318,0.0,0.0,78,0.00,,BKN100,0.00,VWS V14.01,2013-01-06 05:56:00,
2013-01-06 01:01:00,30.6,24.6,30.12,NW,318,0.0,0.0,78,0.00,,BKN100,0.00,VWS V14.01,2013-01-06 06:01:00,
2013-01-06 01:06:00,30.6,24.6,30.13,NW,318,0.0,0.0,78,0.00,,BKN100,0.00,VWS V14.01,2013-01-06 06:06:00,
2013-01-06 01:11:00,30.6,24.3,30.13,NW,318,0.0,0.0,77,0.00,,BKN100,0.00,VWS V14.01,2013-01-06 06:11:00,
2013-01-06 01:16:00,30.6,24.6,30.13,NW,318,0.0,0.0,78,0.00,,BKN100,0.00,VWS V14.01,2013-01-06 06:16:00,
2013-01-06 01:21:00,30.7,24.7,30.13,NW,318,0.0,0.0,78,0.00,,BKN100,0.00,VWS V14.01,2013-01-06 06:21:00,
2013-01-06 01:26:00,30.7,24.7,30.13,NW,318,1.0,1.0,78,0.00,,BKN100,0.00,VWS V14.01,2013-01-06 06:26:00,
2013-01-06 01:31:00,30.6,24.9,30.13,NW,318,0.0,0.0,79,0.00,,BKN100,0.00,VWS V14.01,2013-01-06 06:31:00,
2013-01-06 01:36:00,30.4,24.7,30.12,NW,318,0.0,0.0,79,0.00,,FEW100,0.00,VWS V14.01,2013-01-06 06:36:00,
2013-01-06 01:41:00,30.3,24.9,30.12,NW,318,0.0,0.0,80,0.00,,FEW100,0.00,VWS V14.01,2013-01-06 06:41:00,
2013-01-06 01:46:00,30.3,24.9,30.12,NW,318,0.0,0.0,80,0.00,,FEW100,0.00,VWS V14.01,2013-01-06 06:46:00,
2013-01-06 01:51:00,30.3,24.9,30.11,NW,318,0.0,0.0,80,0.00,,FEW100,0.00,VWS V14.01,2013-01-06 06:51:00,
2013-01-06 01:56:00,30.3,24.6,30.11,NW,318,0.0,0.0,79,0.00,,CLR,0.00,VWS V14.01,2013-01-06 06:56:00,
2013-01-06 02:01:00,30.3,24.6,30.11,NW,318,0.0,0.0,79,0.00,,CLR,0.00,VWS V14.01,2013-01-06 07:01:00,
2013-01-06 02:06:00,30.3,24.6,30.11,NW,318,0.0,1.0,79,0.00,,CLR,0.00,VWS V14.01,2013-01-06 07:06:00,
2013-01-06 02:11:00,30.4,24.4,30.11,NW,318,0.0,0.0,78,0.00,,CLR,0.00,VWS V14.01,2013-01-06 07:11:00,
2013-01-06 02:16:00,30.4,24.4,30.11,NW,318,0.0,0.0,78,0.00,,CLR,0.00,VWS V14.01,2013-01-06 07:16:00,
2013-01-06 02:21:00,30.4,24.4,30.11,NW,318,0.0,0.0,78,0.00,,CLR,0.00,VWS V14.01,2013-01-06 07:21:00,
2013-01-06 02:26:00,30.6,24.0,30.11,NW,318,0.0,0.0,76,0.00,,CLR,0.00,VWS V14.01,2013-01-06 07:26:00,
2013-01-06 02:31:00,30.7,24.0,30.11,NW,318,0.0,1.0,76,0.00,,CLR,0.00,VWS V14.01,2013-01-06 07:31:00,
2013-01-06 02:36:00,30.9,24.2,30.10,NW,318,0.0,0.0,76,0.00,,SCT032,0.00,VWS V14.01,2013-01-06 07:36:00,
2013-01-06 02:41:00,30.9,24.2,30.10,NW,318,0.0,0.0,76,0.00,,SCT032,0.00,VWS V14.01,2013-01-06 07:41:00,
2013-01-06 02:46:00,30.9,24.5,30.10,NW,318,0.0,0.0,77,0.00,,SCT032,0.00,VWS V14.01,2013-01-06 07:46:00,
2013-01-06 02:51:00,30.9,24.5,30.09,NW,318,0.0,1.0,77,0.00,,SCT032,0.00,VWS V14.01,2013-01-06 07:51:00,
2013-01-06 02:56:00,30.7,24.4,30.09,NW,318,0.0,2.0,77,0.00,,BKN028,0.00,VWS V14.01,2013-01-06 07:56:00,
2013-01-06 03:01:00,30.7,24.7,30.09,NW,318,0.0,1.0,78,0.00,,BKN028,0.00,VWS V14.01,2013-01-06 08:01:00,
2013-01-06 03:06:00,30.7,24.7,30.09,NW,318,0.0,0.0,78,0.00,,BKN028,0.00,VWS V14.01,2013-01-06 08:06:00,
2013-01-06 03:11:00,30.7,24.4,30.09,NW,318,0.0,0.0,77,0.00,,BKN028,0.00,VWS V14.01,2013-01-06 08:11:00,
2013-01-06 03:16:00,30.9,24.9,30.09,NW,318,0.0,0.0,78,0.00,,BKN028,0.00,VWS V14.01,2013-01-06 08:16:00,
2013-01-06 03:21:00,30.9,24.9,30.08,NW,318,0.0,0.0,78,0.00,,BKN028,0.00,VWS V14.01,2013-01-06 08:21:00,
2013-01-06 03:26:00,31.2,25.5,30.08,SSE,156,3.0,3.0,79,0.00,,BKN028,0.00,VWS V14.01,2013-01-06 08:26:00,
2013-01-06 03:31:00,31.3,26.2,30.08,SSW,205,4.0,5.0,81,0.00,,BKN028,0.00,VWS V14.01,2013-01-06 08:31:00,
2013-01-06 03:36:00,31.5,26.6,30.06,SSW,210,0.0,0.0,82,0.00,,BKN028,0.00,VWS V14.01,2013-01-06 08:36:00,
2013-01-06 03:41:00,31.5,26.9,30.06,SSW,210,0.0,0.0,83,0.00,,BKN028,0.00,VWS V14.01,2013-01-06 08:41:00,
2013-01-06 03:46:00,31.5,27.2,30.06,SSW,206,0.0,0.0,84,0.00,,BKN028,0.00,VWS V14.01,2013-01-06 08:46:00,
2013-01-06 03:51:00,31.5,27.2,30.06,SSW,206,0.0,0.0,84,0.00,,OVC075,0.00,VWS V14.01,2013-01-06 08:51:00,
2013-01-06 03:56:00,31.5,27.5,30.06,SSW,206,0.0,0.0,85,0.00,,OVC075,0.00,VWS V14.01,2013-01-06 08:56:00,
2013-01-06 04:01:00,31.5,27.5,30.06,SSW,206,0.0,0.0,85,0.00,,OVC075,0.00,VWS V14.01,2013-01-06 09:01:00,
2013-01-06 04:06:00,31.6,27.9,30.05,SSW,206,0.0,0.0,86,0.00,,OVC075,0.00,VWS V14.01,2013-01-06 09:06:00,
2013-01-06 04:11:00,31.6,27.9,30.05,SSW,206,0.0,0.0,86,0.00,,OVC075,0.00,VWS V14.01,2013-01-06 09:11:00,
2013-01-06 04:16:00,31.6,27.9,30.05,SSW,206,0.0,0.0,86,0.00,,OVC075,0.00,VWS V14.01,2013-01-06 09:16:00,
2013-01-06 04:21:00,31.6,27.9,30.05,SSW,206,0.0,1.0,86,0.00,,OVC075,0.00,VWS V14.01,2013-01-06 09:21:00,
2013-01-06 04:26:00,31.3,27.6,30.05,SSW,206,0.0,0.0,86,0.00,,OVC075,0.00,VWS V14.01,2013-01-06 09:26:00,
2013-01-06 04:31:00,31.2,27.5,30.05,WNW,302,0.0,0.0,86,0.00,,OVC075,0.00,VWS V14.01,2013-01-06 09:31:00,
2013-01-06 04:36:00,31.0,27.6,30.04,WNW,302,0.0,0.0,87,0.00,,OVC017,0.00,VWS V14.01,2013-01-06 09:36:00,
2013-01-06 04:41:00,31.0,27.6,30.04,WNW,302,0.0,0.0,87,0.00,,OVC017,0.00,VWS V14.01,2013-01-06 09:41:00,
2013-01-06 04:46:00,30.9,27.5,30.04,WNW,302,0.0,0.0,87,0.00,,OVC017,0.00,VWS V14.01,2013-01-06 09:46:00,
2013-01-06 04:51:00,30.9,27.5,30.04,WNW,302,0.0,0.0,87,0.00,,OVC010,0.00,VWS V14.01,2013-01-06 09:51:00,
2013-01-06 04:56:00,30.9,27.5,30.04,WNW,302,0.0,0.0,87,0.00,,OVC010,0.00,VWS V14.01,2013-01-06 09:56:00,
2013-01-06 05:01:00,31.0,27.6,30.04,WNW,302,0.0,0.0,87,0.00,,OVC010,0.00,VWS V14.01,2013-01-06 10:01:00,
2013-01-06 05:06:00,31.0,27.6,30.03,WNW,302,0.0,0.0,87,0.00,,OVC010,0.00,VWS V14.01,2013-01-06 10:06:00,
2013-01-06 05:11:00,31.0,27.6,30.03,WNW,302,0.0,0.0,87,0.00,,OVC010,0.00,VWS V14.01,2013-01-06 10:11:00,
2013-01-06 05:16:00,31.0,27.9,30.03,WNW,302,0.0,0.0,88,0.00,,OVC010,0.00,VWS V14.01,2013-01-06 10:16:00,
2013-01-06 05:21:00,31.0,27.9,30.04,WNW,302,0.0,0.0,88,0.00,,OVC010,0.00,VWS V14.01,2013-01-06 10:21:00,
2013-01-06 05:26:00,31.0,27.9,30.04,WNW,302,0.0,0.0,88,0.00,,OVC010,0.00,VWS V14.01,2013-01-06 10:26:00,
2013-01-06 05:31:00,31.2,28.1,30.04,WNW,302,0.0,0.0,88,0.00,,OVC010,0.00,VWS V14.01,2013-01-06 10:31:00,
2013-01-06 05:36:00,31.3,28.2,30.04,WNW,302,0.0,0.0,88,0.00,,OVC006,0.00,VWS V14.01,2013-01-06 10:36:00,
2013-01-06 05:41:00,31.3,28.4,30.04,WNW,302,0.0,0.0,89,0.00,,OVC006,0.00,VWS V14.01,2013-01-06 10:41:00,
2013-01-06 05:46:00,31.6,28.7,30.04,West,271,0.0,0.0,89,0.00,,OVC006,0.00,VWS V14.01,2013-01-06 10:46:00,
2013-01-06 05:51:00,31.9,29.0,30.03,West,271,0.0,0.0,89,0.00,,OVC006,0.00,VWS V14.01,2013-01-06 10:51:00,
2013-01-06 05:56:00,32.1,29.2,30.03,West,271,0.0,0.0,89,0.00,,OVC006,0.00,VWS V14.01,2013-01-06 10:56:00,
2013-01-06 06:01:00,32.2,29.6,30.03,West,271,0.0,0.0,90,0.00,,OVC006,0.00,VWS V14.01,2013-01-06 11:01:00,
2013-01-06 06:06:00,32.2,29.6,30.03,West,271,0.0,0.0,90,0.00,,OVC006,0.00,VWS V14.01,2013-01-06 11:06:00,
2013-01-06 06:11:00,32.4,29.8,30.03,West,271,1.0,2.0,90,0.00,,OVC006,0.00,VWS V14.01,2013-01-06 11:11:00,
2013-01-06 06:16:00,32.4,29.8,30.03,West,271,0.0,0.0,90,0.00,,OVC006,0.00,VWS V14.01,2013-01-06 11:16:00,
2013-01-06 06:21:00,32.4,29.8,30.04,West,271,0.0,0.0,90,0.00,,OVC006,0.00,VWS V14.01,2013-01-06 11:21:00,
2013-01-06 06:26:00,32.4,29.8,30.04,West,271,0.0,0.0,90,0.00,,OVC006,0.00,VWS V14.01,2013-01-06 11:26:00,
2013-01-06 06:31:00,32.4,29.8,30.04,West,271,0.0,0.0,90,0.00,,OVC006,0.00,VWS V14.01,2013-01-06 11:31:00,
2013-01-06 06:36:00,32.4,29.8,30.04,West,271,0.0,0.0,90,0.00,,OVC008,0.00,VWS V14.01,2013-01-06 11:36:00,
2013-01-06 06:41:00,32.4,29.8,30.04,West,271,0.0,1.0,90,0.00,,OVC008,0.00,VWS V14.01,2013-01-06 11:41:00,
2013-01-06 06:46:00,32.4,29.8,30.04,West,271,0.0,0.0,90,0.00,,OVC008,0.00,VWS V14.01,2013-01-06 11:46:00,
2013-01-06 06:51:00,32.4,29.8,30.04,West,271,0.0,0.0,90,0.00,,OVC010,0.00,VWS V14.01,2013-01-06 11:51:00,
2013-01-06 06:56:00,32.4,29.8,30.04,West,271,0.0,0.0,90,0.00,,OVC010,0.00,VWS V14.01,2013-01-06 11:56:00,
2013-01-06 07:01:00,32.2,29.6,30.04,West,271,0.0,0.0,90,0.00,,OVC010,0.00,VWS V14.01,2013-01-06 12:01:00,
2013-01-06 07:06:00,32.2,29.6,30.03,West,271,0.0,0.0,90,0.00,,OVC010,0.00,VWS V14.01,2013-01-06 12:06:00,
2013-01-06 07:11:00,32.2,29.9,30.03,West,271,0.0,1.0,91,0.00,,OVC010,0.00,VWS V14.01,2013-01-06 12:11:00,
2013-01-06 07:16:00,32.2,29.9,30.03,West,271,1.0,4.0,91,0.00,,OVC010,0.00,VWS V14.01,2013-01-06 12:16:00,
2013-01-06 07:21:00,32.1,29.8,30.04,WSW,249,1.0,1.0,91,0.00,,OVC010,0.00,VWS V14.01,2013-01-06 12:21:00,
2013-01-06 07:26:00,32.1,29.8,30.04,WSW,249,0.0,1.0,91,0.00,,OVC010,0.00,VWS V14.01,2013-01-06 12:26:00,
2013-01-06 07:31:00,32.1,29.8,30.04,WSW,249,1.0,2.0,91,0.00,,OVC010,0.00,VWS V14.01,2013-01-06 12:31:00,
2013-01-06 07:36:00,32.2,29.9,30.04,West,264,2.0,2.0,91,0.00,,OVC012,0.00,VWS V14.01,2013-01-06 12:36:00,
2013-01-06 07:41:00,32.1,29.8,30.04,WSW,248,4.0,4.0,91,0.00,,OVC012,0.00,VWS V14.01,2013-01-06 12:41:00,
2013-01-06 07:46:00,32.1,29.8,30.04,WSW,248,0.0,0.0,91,0.00,,OVC012,0.00,VWS V14.01,2013-01-06 12:46:00,
2013-01-06 07:51:00,32.2,29.9,30.04,WSW,249,3.0,3.0,91,0.00,,OVC012,0.00,VWS V14.01,2013-01-06 12:51:00,
2013-01-06 07:56:00,32.4,30.1,30.04,WSW,251,2.0,2.0,91,0.00,,OVC012,0.00,VWS V14.01,2013-01-06 12:56:00,
2013-01-06 08:01:00,32.4,30.1,30.04,WSW,256,0.0,0.0,91,0.00,,OVC012,0.00,VWS V14.01,2013-01-06 13:01:00,
2013-01-06 08:06:00,32.5,30.2,30.04,WSW,257,1.0,2.0,91,0.00,,OVC012,0.00,VWS V14.01,2013-01-06 13:06:00,
2013-01-06 08:11:00,32.5,30.2,30.04,West,273,0.0,0.0,91,0.00,,OVC012,0.00,VWS V14.01,2013-01-06 13:11:00,
2013-01-06 08:16:00,32.7,30.4,30.04,WSW,242,1.0,2.0,91,0.00,,OVC065,0.00,VWS V14.01,2013-01-06 13:16:00,
2013-01-06 08:21:00,32.7,30.4,30.04,West,260,2.0,4.0,91,0.00,,OVC065,0.00,VWS V14.01,2013-01-06 13:21:00,
2013-01-06 08:26:00,32.8,30.5,30.04,West,263,2.0,3.0,91,0.00,,OVC065,0.00,VWS V14.01,2013-01-06 13:26:00,
2013-01-06 08:31:00,32.9,30.6,30.04,WSW,252,2.0,3.0,91,0.00,,OVC065,0.00,VWS V14.01,2013-01-06 13:31:00,
2013-01-06 08:36:00,33.1,30.8,30.04,WSW,251,1.0,1.0,91,0.00,,OVC065,0.00,VWS V14.01,2013-01-06 13:36:00,
2013-01-06 08:41:00,33.2,30.6,30.04,West,259,4.0,6.0,90,0.00,,OVC065,0.00,VWS V14.01,2013-01-06 13:41:00,
2013-01-06 08:46:00,33.4,30.8,30.04,WSW,253,3.0,3.0,90,0.00,,OVC065,0.00,VWS V14.01,2013-01-06 13:46:00,
2013-01-06 08:51:00,33.4,30.8,30.03,West,264,2.0,2.0,90,0.00,,OVC065,0.00,VWS V14.01,2013-01-06 13:51:00,
2013-01-06 08:56:00,33.5,30.6,30.03,WSW,243,5.0,7.0,89,0.00,,OVC065,0.00,VWS V14.01,2013-01-06 13:56:00,
2013-01-06 09:01:00,33.5,30.6,30.03,West,263,4.0,6.0,89,0.00,,OVC065,0.00,VWS V14.01,2013-01-06 14:01:00,
2013-01-06 09:06:00,33.7,30.8,30.03,West,273,2.0,2.0,89,0.00,,OVC065,0.00,VWS V14.01,2013-01-06 14:06:00,
2013-01-06 09:11:00,33.8,30.9,30.03,SW,234,6.0,6.0,89,0.00,,OVC065,0.00,VWS V14.01,2013-01-06 14:11:00,
2013-01-06 09:16:00,34.0,30.8,30.03,West,263,2.0,2.0,88,0.00,,OVC065,0.00,VWS V14.01,2013-01-06 14:16:00,
2013-01-06 09:21:00,34.1,30.9,30.03,West,271,2.0,4.0,88,0.00,,OVC065,0.00,VWS V14.01,2013-01-06 14:21:00,
2013-01-06 09:26:00,34.4,31.2,30.03,SSW,209,6.0,6.0,88,0.00,,OVC065,0.00,VWS V14.01,2013-01-06 14:26:00,
2013-01-06 09:31:00,34.4,30.9,30.03,WNW,293,1.0,5.0,87,0.00,,OVC065,0.00,VWS V14.01,2013-01-06 14:31:00,
2013-01-06 09:36:00,34.7,31.2,30.03,WSW,248,0.0,0.0,87,0.00,,OVC065,0.00,VWS V14.01,2013-01-06 14:36:00,
2013-01-06 09:41:00,35.3,31.8,30.03,WNW,291,2.0,2.0,87,0.00,,OVC065,0.00,VWS V14.01,2013-01-06 14:41:00,
2013-01-06 09:46:00,35.3,31.5,30.03,WSW,246,4.0,4.0,86,0.00,,OVC065,0.00,VWS V14.01,2013-01-06 14:46:00,
2013-01-06 09:51:00,35.5,31.5,30.03,West,270,6.0,6.0,85,0.00,,OVC065,0.00,VWS V14.01,2013-01-06 14:51:00,
2013-01-06 09:56:00,35.6,31.2,30.03,West,278,2.0,2.0,84,0.00,,OVC065,0.00,VWS V14.01,2013-01-06 14:56:00,
2013-01-06 10:01:00,35.9,31.2,30.03,SW,236,4.0,4.0,83,0.00,,OVC065,0.00,VWS V14.01,2013-01-06 15:01:00,
2013-01-06 10:06:00,36.3,31.6,30.03,WNW,282,5.0,5.0,83,0.00,,OVC065,0.00,VWS V14.01,2013-01-06 15:06:00,
2013-01-06 10:11:00,36.6,31.3,30.03,WSW,245,1.0,2.0,81,0.00,,OVC065,0.00,VWS V14.01,2013-01-06 15:11:00,
2013-01-06 10:16:00,37.0,31.4,30.03,WNW,292,6.0,6.0,80,0.00,,OVC065,0.00,VWS V14.01,2013-01-06 15:16:00,
2013-01-06 10:21:00,37.5,31.3,30.02,WSW,256,5.0,6.0,78,0.00,,OVC065,0.00,VWS V14.01,2013-01-06 15:21:00,
2013-01-06 10:26:00,37.8,31.2,30.02,WNW,290,5.0,5.0,77,0.00,,OVC065,0.00,VWS V14.01,2013-01-06 15:26:00,
2013-01-06 10:31:00,37.9,31.0,30.02,West,276,4.0,4.0,76,0.00,,OVC065,0.00,VWS V14.01,2013-01-06 15:31:00,
2013-01-06 10:36:00,38.2,30.7,30.01,West,264,2.0,4.0,74,0.00,,OVC065,0.00,VWS V14.01,2013-01-06 15:36:00,
2013-01-06 10:41:00,38.9,31.0,30.01,WNW,291,0.0,1.0,73,0.00,,OVC065,0.00,VWS V14.01,2013-01-06 15:41:00,
2013-01-06 10:46:00,39.3,31.0,30.01,West,272,6.0,7.0,72,0.00,,OVC065,0.00,VWS V14.01,2013-01-06 15:46:00,
2013-01-06 10:51:00,39.2,30.6,30.01,West,266,6.0,7.0,71,0.00,,OVC065,0.00,VWS V14.01,2013-01-06 15:51:00,
2013-01-06 10:56:00,39.3,30.7,30.01,West,271,0.0,3.0,71,0.00,,OVC065,0.00,VWS V14.01,2013-01-06 15:56:00,
2013-01-06 11:01:00,39.8,30.8,30.01,West,271,5.0,5.0,70,0.00,,OVC065,0.00,VWS V14.01,2013-01-06 16:01:00,
2013-01-06 11:06:00,39.8,30.5,30.00,WSW,238,5.0,6.0,69,0.00,,OVC065,0.00,VWS V14.01,2013-01-06 16:06:00,
2013-01-06 11:11:00,40.1,30.8,30.00,WNW,288,4.0,6.0,69,0.00,,OVC065,0.00,VWS V14.01,2013-01-06 16:11:00,
2013-01-06 11:16:00,40.5,30.8,30.00,WNW,283,4.0,4.0,68,0.00,,OVC065,0.00,VWS V14.01,2013-01-06 16:16:00,
2013-01-06 11:21:00,40.9,30.1,29.99,WNW,285,1.0,4.0,65,0.00,,OVC065,0.00,VWS V14.01,2013-01-06 16:21:00,
2013-01-06 11:26:00,41.2,30.0,29.99,WSW,254,7.0,7.0,64,0.00,,OVC065,0.00,VWS V14.01,2013-01-06 16:26:00,
2013-01-06 11:31:00,41.5,30.2,29.99,WSW,255,5.0,7.0,64,0.00,,OVC065,0.00,VWS V14.01,2013-01-06 16:31:00,
2013-01-06 11:36:00,41.3,29.7,29.98,WSW,253,4.0,5.0,63,0.00,,CLR,0.00,VWS V14.01,2013-01-06 16:36:00,
2013-01-06 11:41:00,41.6,30.3,29.98,WNW,299,8.0,8.0,64,0.00,,CLR,0.00,VWS V14.01,2013-01-06 16:41:00,
2013-01-06 11:46:00,41.8,29.0,29.98,West,265,7.0,8.0,60,0.00,,CLR,0.00,VWS V14.01,2013-01-06 16:46:00,
2013-01-06 11:51:00,41.9,29.5,29.97,West,277,4.0,6.0,61,0.00,,CLR,0.00,VWS V14.01,2013-01-06 16:51:00,
2013-01-06 11:56:00,42.1,29.2,29.97,WNW,290,2.0,4.0,60,0.00,,CLR,0.00,VWS V14.01,2013-01-06 16:56:00,
2013-01-06 12:01:00,42.3,29.8,29.97,WSW,254,8.0,8.0,61,0.00,,CLR,0.00,VWS V14.01,2013-01-06 17:01:00,
2013-01-06 12:06:00,42.3,29.0,29.96,WNW,288,5.0,7.0,59,0.00,,CLR,0.00,VWS V14.01,2013-01-06 17:06:00,
2013-01-06 12:11:00,42.6,29.7,29.96,West,276,0.0,4.0,60,0.00,,CLR,0.00,VWS V14.01,2013-01-06 17:11:00,
2013-01-06 12:16:00,42.8,29.5,29.96,WSW,249,4.0,5.0,59,0.00,,CLR,0.00,VWS V14.01,2013-01-06 17:16:00,
2013-01-06 12:21:00,43.2,29.9,29.95,West,278,2.0,5.0,59,0.00,,CLR,0.00,VWS V14.01,2013-01-06 17:21:00,
2013-01-06 12:26:00,43.5,29.7,29.95,SW,236,4.0,5.0,58,0.00,,CLR,0.00,VWS V14.01,2013-01-06 17:26:00,
2013-01-06 12:31:00,43.6,29.4,29.95,West,266,7.0,7.0,57,0.00,,CLR,0.00,VWS V14.01,2013-01-06 17:31:00,
2013-01-06 12:36:00,43.9,29.2,29.95,NNW,332,7.0,7.0,56,0.00,,CLR,0.00,VWS V14.01,2013-01-06 17:36:00,
2013-01-06 12:41:00,44.2,29.1,29.95,WNW,293,7.0,7.0,55,0.00,,CLR,0.00,VWS V14.01,2013-01-06 17:41:00,
2013-01-06 12:46:00,44.5,28.9,29.95,West,277,5.0,8.0,54,0.00,,CLR,0.00,VWS V14.01,2013-01-06 17:46:00,
2013-01-06 12:51:00,44.8,29.2,29.95,SW,234,1.0,6.0,54,0.00,,CLR,0.00,VWS V14.01,2013-01-06 17:51:00,
2013-01-06 12:56:00,45.2,29.6,29.95,WSW,238,9.0,9.0,54,0.00,,CLR,0.00,VWS V14.01,2013-01-06 17:56:00,
2013-01-06 13:01:00,45.1,28.5,29.95,West,261,5.0,6.0,52,0.00,,CLR,0.00,VWS V14.01,2013-01-06 18:01:00,
2013-01-06 13:12:00,45.2,28.2,29.93,NW,304,7.0,8.0,51,0.00,,CLR,0.00,VWS V14.01,2013-01-06 18:12:00,
2013-01-06 13:17:00,45.4,28.4,29.93,WSW,253,5.0,9.0,51,0.00,,CLR,0.00,VWS V14.01,2013-01-06 18:17:00,
2013-01-06 13:22:00,45.7,28.6,29.92,West,271,7.0,8.0,51,0.00,,CLR,0.00,VWS V14.01,2013-01-06 18:22:00,
2013-01-06 13:27:00,45.5,28.4,29.92,WSW,251,5.0,9.0,51,0.00,,CLR,0.00,VWS V14.01,2013-01-06 18:27:00,
2013-01-06 13:32:00,45.4,28.8,29.92,West,263,2.0,5.0,52,0.00,,CLR,0.00,VWS V14.01,2013-01-06 18:32:00,
2013-01-06 13:38:00,45.4,28.4,29.91,WNW,283,6.0,6.0,51,0.00,,CLR,0.00,VWS V14.01,2013-01-06 18:38:00,
2013-01-06 13:43:00,45.7,28.6,29.91,WSW,252,6.0,8.0,51,0.00,,CLR,0.00,VWS V14.01,2013-01-06 18:43:00,
2013-01-06 13:48:00,45.4,26.9,29.91,WSW,238,5.0,11.0,48,0.00,,CLR,0.00,VWS V14.01,2013-01-06 18:48:00,
2013-01-06 13:53:00,45.2,27.7,29.92,SW,233,2.0,7.0,50,0.00,,CLR,0.00,VWS V14.01,2013-01-06 18:53:00,
2013-01-06 13:58:00,45.5,27.5,29.92,WSW,241,11.0,11.0,49,0.00,,CLR,0.00,VWS V14.01,2013-01-06 18:58:00,
2013-01-06 14:03:00,45.8,27.7,29.92,West,262,6.0,12.0,49,0.00,,CLR,0.00,VWS V14.01,2013-01-06 19:03:00,
2013-01-06 14:08:00,45.8,27.7,29.92,West,265,8.0,8.0,49,0.00,,CLR,0.00,VWS V14.01,2013-01-06 19:08:00,
2013-01-06 14:13:00,45.8,26.7,29.92,WSW,247,3.0,7.0,47,0.00,,CLR,0.00,VWS V14.01,2013-01-06 19:13:00,
2013-01-06 14:18:00,45.7,26.6,29.92,SW,228,8.0,11.0,47,0.00,,CLR,0.00,VWS V14.01,2013-01-06 19:18:00,
2013-01-06 14:23:00,45.2,26.2,29.91,West,273,6.0,13.0,47,0.00,,CLR,0.00,VWS V14.01,2013-01-06 19:23:00,
2013-01-06 14:28:00,45.7,27.1,29.91,West,274,5.0,11.0,48,0.00,,CLR,0.00,VWS V14.01,2013-01-06 19:28:00,
2013-01-06 14:33:00,45.1,26.6,29.91,West,264,4.0,9.0,48,0.00,,BKN075,0.00,VWS V14.01,2013-01-06 19:33:00,
2013-01-06 14:38:00,44.8,26.8,29.92,West,279,4.0,5.0,49,0.00,,BKN075,0.00,VWS V14.01,2013-01-06 19:38:00,
2013-01-06 14:48:00,44.8,26.8,29.92,WNW,285,4.0,10.0,49,0.00,,BKN075,0.00,VWS V14.01,2013-01-06 19:48:00,
2013-01-06 14:54:00,45.5,25.9,29.92,West,263,7.0,10.0,46,0.00,,OVC075,0.00,VWS V14.01,2013-01-06 19:54:00,
2013-01-06 14:59:00,45.2,25.1,29.92,WNW,282,4.0,13.0,45,0.00,,OVC075,0.00,VWS V14.01,2013-01-06 19:59:00,
2013-01-06 15:04:00,44.9,24.9,29.92,West,260,10.0,11.0,45,0.00,,OVC075,0.00,VWS V14.01,2013-01-06 20:04:00,
2013-01-06 15:09:00,44.9,25.4,29.91,WSW,250,8.0,11.0,46,0.00,,OVC075,0.00,VWS V14.01,2013-01-06 20:09:00,
2013-01-06 15:11:00,44.9,25.4,29.91,NW,304,6.0,11.0,46,0.00,,OVC075,0.00,VWS V14.01,2013-01-06 20:11:00,
2013-01-06 15:13:00,44.9,25.9,29.91,WNW,286,5.0,7.0,47,0.00,,OVC075,0.00,VWS V14.01,2013-01-06 20:13:00,
2013-01-06 15:18:00,44.9,25.9,29.91,WNW,291,7.0,8.0,47,0.00,,OVC075,0.00,VWS V14.01,2013-01-06 20:18:00,
2013-01-06 15:23:00,45.2,26.2,29.91,NW,314,5.0,9.0,47,0.00,,OVC075,0.00,VWS V14.01,2013-01-06 20:23:00,
2013-01-06 15:28:00,45.2,26.7,29.91,West,276,4.0,5.0,48,0.00,,OVC075,0.00,VWS V14.01,2013-01-06 20:28:00,
2013-01-06 15:33:00,45.2,26.7,29.91,WNW,288,5.0,6.0,48,0.00,,OVC075,0.00,VWS V14.01,2013-01-06 20:33:00,
2013-01-06 15:38:00,45.2,27.2,29.91,WNW,287,14.0,14.0,49,0.00,,OVC075,0.00,VWS V14.01,2013-01-06 20:38:00,
2013-01-06 15:43:00,44.5,26.0,29.91,West,269,5.0,12.0,48,0.00,,OVC075,0.00,VWS V14.01,2013-01-06 20:43:00,
2013-01-06 15:48:00,44.3,26.4,29.91,WNW,285,5.0,8.0,49,0.00,,OVC075,0.00,VWS V14.01,2013-01-06 20:48:00,
2013-01-06 15:53:00,44.1,26.7,29.91,NNW,335,4.0,9.0,50,0.00,,OVC075,0.00,VWS V14.01,2013-01-06 20:53:00,
2013-01-06 15:58:00,43.6,26.7,29.91,WSW,257,6.0,6.0,51,0.00,,OVC075,0.00,VWS V14.01,2013-01-06 20:58:00,
2013-01-06 16:01:00,43.5,27.1,29.91,WNW,288,3.0,3.0,52,0.00,,OVC075,0.00,VWS V14.01,2013-01-06 21:01:00,
2013-01-06 16:06:00,43.2,26.8,29.92,WNW,283,1.0,1.0,52,0.00,,OVC075,0.00,VWS V14.01,2013-01-06 21:06:00,
2013-01-06 16:11:00,42.9,27.0,29.92,West,271,1.0,3.0,53,0.00,,OVC075,0.00,VWS V14.01,2013-01-06 21:11:00,
2013-01-06 16:16:00,42.6,26.7,29.92,WNW,286,2.0,4.0,53,0.00,,OVC075,0.00,VWS V14.01,2013-01-06 21:16:00,
2013-01-06 16:21:00,42.3,26.9,29.92,West,259,2.0,2.0,54,0.00,,OVC075,0.00,VWS V14.01,2013-01-06 21:21:00,
2013-01-06 16:26:00,42.2,26.8,29.92,SW,232,2.0,2.0,54,0.00,,OVC075,0.00,VWS V14.01,2013-01-06 21:26:00,
2013-01-06 16:31:00,41.9,26.5,29.92,West,269,2.0,2.0,54,0.00,,OVC075,0.00,VWS V14.01,2013-01-06 21:31:00,
2013-01-06 16:36:00,41.8,26.8,29.92,West,269,1.0,2.0,55,0.00,,SCT075,0.00,VWS V14.01,2013-01-06 21:36:00,
2013-01-06 16:41:00,41.5,27.0,29.92,West,266,1.0,1.0,56,0.00,,SCT075,0.00,VWS V14.01,2013-01-06 21:41:00,
2013-01-06 16:46:00,41.1,27.0,29.92,West,276,0.0,2.0,57,0.00,,SCT075,0.00,VWS V14.01,2013-01-06 21:46:00,
2013-01-06 16:51:00,40.8,26.8,29.92,SW,226,0.0,0.0,57,0.00,,SCT075,0.00,VWS V14.01,2013-01-06 21:51:00,
2013-01-06 16:56:00,40.6,26.6,29.92,SW,226,0.0,0.0,57,0.00,,BKN075,0.00,VWS V14.01,2013-01-06 21:56:00,
2013-01-06 17:01:00,40.3,26.3,29.92,SW,226,0.0,0.0,57,0.00,,BKN075,0.00,VWS V14.01,2013-01-06 22:01:00,
2013-01-06 17:06:00,39.9,26.3,29.92,SW,226,0.0,0.0,58,0.00,,BKN075,0.00,VWS V14.01,2013-01-06 22:06:00,
2013-01-06 17:11:00,39.5,26.4,29.92,SW,226,0.0,0.0,59,0.00,,BKN075,0.00,VWS V14.01,2013-01-06 22:11:00,
2013-01-06 17:16:00,39.2,26.1,29.92,SW,226,0.0,0.0,59,0.00,,BKN075,0.00,VWS V14.01,2013-01-06 22:16:00,
2013-01-06 17:21:00,38.8,26.1,29.93,SW,226,0.0,0.0,60,0.00,,BKN075,0.00,VWS V14.01,2013-01-06 22:21:00,
2013-01-06 17:26:00,38.3,26.0,29.93,SW,226,0.0,0.0,61,0.00,,BKN075,0.00,VWS V14.01,2013-01-06 22:26:00,
2013-01-06 17:31:00,37.9,26.1,29.93,SW,226,0.0,0.0,62,0.00,,BKN075,0.00,VWS V14.01,2013-01-06 22:31:00,
2013-01-06 17:36:00,37.6,25.8,29.94,SW,226,0.0,0.0,62,0.00,,BKN075,0.00,VWS V14.01,2013-01-06 22:36:00,
2013-01-06 17:41:00,37.5,26.1,29.94,SW,226,0.0,0.0,63,0.00,,BKN075,0.00,VWS V14.01,2013-01-06 22:41:00,
2013-01-06 17:46:00,37.3,25.9,29.94,SW,226,0.0,0.0,63,0.00,,BKN075,0.00,VWS V14.01,2013-01-06 22:46:00,
2013-01-06 17:51:00,37.3,26.3,29.94,SW,226,0.0,0.0,64,0.00,,BKN075,0.00,VWS V14.01,2013-01-06 22:51:00,
2013-01-06 17:56:00,37.2,26.5,29.94,SW,226,0.0,0.0,65,0.00,,BKN075,0.00,VWS V14.01,2013-01-06 22:56:00,
2013-01-06 18:01:00,37.2,26.5,29.94,SW,226,0.0,0.0,65,0.00,,BKN075,0.00,VWS V14.01,2013-01-06 23:01:00,
2013-01-06 18:06:00,37.2,26.5,29.94,SW,226,0.0,0.0,65,0.00,,BKN075,0.00,VWS V14.01,2013-01-06 23:06:00,
2013-01-06 18:11:00,37.0,26.7,29.94,SW,226,0.0,0.0,66,0.00,,BKN075,0.00,VWS V14.01,2013-01-06 23:11:00,
2013-01-06 18:16:00,37.0,26.7,29.94,SW,226,0.0,0.0,66,0.00,,BKN075,0.00,VWS V14.01,2013-01-06 23:16:00,
2013-01-06 18:21:00,37.2,26.5,29.94,SW,226,0.0,0.0,65,0.00,,BKN075,0.00,VWS V14.01,2013-01-06 23:21:00,
2013-01-06 18:26:00,37.2,26.9,29.94,SW,226,0.0,0.0,66,0.00,,BKN075,0.00,VWS V14.01,2013-01-06 23:26:00,
2013-01-06 18:31:00,37.3,27.0,29.94,SW,226,0.0,0.0,66,0.00,,BKN075,0.00,VWS V14.01,2013-01-06 23:31:00,
2013-01-06 18:36:00,37.3,27.0,29.95,SW,226,0.0,0.0,66,0.00,,OVC075,0.00,VWS V14.01,2013-01-06 23:36:00,
2013-01-06 18:41:00,37.5,27.5,29.95,SW,226,0.0,0.0,67,0.00,,OVC075,0.00,VWS V14.01,2013-01-06 23:41:00,
2013-01-06 18:46:00,37.6,27.3,29.95,SW,226,0.0,0.0,66,0.00,,OVC075,0.00,VWS V14.01,2013-01-06 23:46:00,
2013-01-06 18:51:00,37.8,27.8,29.95,SW,226,0.0,0.0,67,0.00,,OVC075,0.00,VWS V14.01,2013-01-06 23:51:00,
2013-01-06 18:56:00,37.8,27.8,29.95,SW,226,0.0,0.0,67,0.00,,OVC065,0.00,VWS V14.01,2013-01-06 23:56:00,
2013-01-06 19:01:00,37.9,27.6,29.95,SW,226,0.0,0.0,66,0.00,,OVC065,0.00,VWS V14.01,2013-01-07 00:01:00,
2013-01-06 19:06:00,37.9,27.6,29.95,SW,226,0.0,0.0,66,0.00,,OVC065,0.00,VWS V14.01,2013-01-07 00:06:00,
2013-01-06 19:11:00,38.0,27.7,29.95,SW,226,0.0,0.0,66,0.00,,OVC065,0.00,VWS V14.01,2013-01-07 00:11:00,
2013-01-06 19:16:00,38.2,27.5,29.95,SW,226,0.0,0.0,65,0.00,,OVC065,0.00,VWS V14.01,2013-01-07 00:16:00,
2013-01-06 19:21:00,38.2,27.5,29.95,SW,226,0.0,0.0,65,0.00,,OVC065,0.00,VWS V14.01,2013-01-07 00:21:00,
2013-01-06 19:26:00,38.2,27.9,29.95,SW,226,0.0,0.0,66,0.00,,OVC065,0.00,VWS V14.01,2013-01-07 00:26:00,
2013-01-06 19:31:00,38.0,27.7,29.95,SW,226,0.0,0.0,66,0.00,,OVC065,0.00,VWS V14.01,2013-01-07 00:31:00,
2013-01-06 19:36:00,37.9,27.6,29.95,SW,226,0.0,0.0,66,0.00,,OVC065,0.00,VWS V14.01,2013-01-07 00:36:00,
2013-01-06 19:41:00,37.9,27.6,29.95,SW,226,0.0,0.0,66,0.00,,OVC065,0.00,VWS V14.01,2013-01-07 00:41:00,
2013-01-06 19:46:00,37.8,27.5,29.95,SW,226,0.0,0.0,66,0.00,,OVC065,0.00,VWS V14.01,2013-01-07 00:46:00,
2013-01-06 19:51:00,37.8,27.5,29.95,SW,226,0.0,0.0,66,0.00,,OVC065,0.00,VWS V14.01,2013-01-07 00:51:00,
2013-01-06 19:56:00,37.9,27.6,29.95,SW,226,0.0,0.0,66,0.00,,OVC065,0.00,VWS V14.01,2013-01-07 00:56:00,
2013-01-06 20:01:00,37.9,27.6,29.95,SW,226,0.0,0.0,66,0.00,,OVC065,0.00,VWS V14.01,2013-01-07 01:01:00,
2013-01-06 20:06:00,38.0,27.7,29.95,SW,226,0.0,0.0,66,0.00,,OVC065,0.00,VWS V14.01,2013-01-07 01:06:00,
2013-01-06 20:11:00,38.0,27.7,29.95,SW,226,0.0,0.0,66,0.00,,OVC065,0.00,VWS V14.01,2013-01-07 01:11:00,
2013-01-06 20:16:00,37.9,27.6,29.95,SW,226,0.0,0.0,66,0.00,,OVC065,0.00,VWS V14.01,2013-01-07 01:16:00,
2013-01-06 20:21:00,37.9,27.6,29.95,SW,226,0.0,0.0,66,0.00,,OVC065,0.00,VWS V14.01,2013-01-07 01:21:00,
2013-01-06 20:26:00,37.9,27.6,29.95,SW,226,0.0,0.0,66,0.00,,OVC065,0.00,VWS V14.01,2013-01-07 01:26:00,
2013-01-06 20:31:00,37.9,27.6,29.95,SW,226,0.0,0.0,66,0.00,,OVC065,0.00,VWS V14.01,2013-01-07 01:31:00,
2013-01-06 20:36:00,37.9,27.6,29.95,SW,226,0.0,0.0,66,0.00,,OVC065,0.00,VWS V14.01,2013-01-07 01:36:00,
2013-01-06 20:41:00,37.9,27.6,29.95,SW,226,0.0,0.0,66,0.00,,OVC065,0.00,VWS V14.01,2013-01-07 01:41:00,
2013-01-06 20:46:00,38.0,27.7,29.95,SW,226,0.0,0.0,66,0.00,,OVC065,0.00,VWS V14.01,2013-01-07 01:46:00,
2013-01-06 20:51:00,38.2,27.9,29.95,SW,226,1.0,1.0,66,0.00,,OVC065,0.00,VWS V14.01,2013-01-07 01:51:00,
2013-01-06 20:56:00,38.5,27.8,29.95,SW,226,0.0,0.0,65,0.00,,OVC065,0.00,VWS V14.01,2013-01-07 01:56:00,
2013-01-06 21:01:00,38.6,27.9,29.95,SW,226,0.0,0.0,65,0.00,,OVC065,0.00,VWS V14.01,2013-01-07 02:01:00,
2013-01-06 21:06:00,38.8,28.1,29.95,SW,226,1.0,1.0,65,0.00,,OVC065,0.00,VWS V14.01,2013-01-07 02:06:00,
2013-01-06 21:11:00,39.2,28.1,29.95,SW,226,0.0,0.0,64,0.00,,OVC065,0.00,VWS V14.01,2013-01-07 02:11:00,
2013-01-06 21:16:00,39.2,28.1,29.95,SW,226,0.0,0.0,64,0.00,,OVC065,0.00,VWS V14.01,2013-01-07 02:16:00,
2013-01-06 21:21:00,39.1,28.0,29.96,SW,226,0.0,0.0,64,0.00,,OVC065,0.00,VWS V14.01,2013-01-07 02:21:00,
2013-01-06 21:26:00,38.9,27.8,29.96,SW,226,0.0,0.0,64,0.00,,OVC065,0.00,VWS V14.01,2013-01-07 02:26:00,
2013-01-06 21:31:00,38.8,27.7,29.96,SW,226,0.0,0.0,64,0.00,,OVC065,0.00,VWS V14.01,2013-01-07 02:31:00,
2013-01-06 21:36:00,38.6,27.9,29.96,SW,226,0.0,0.0,65,0.00,,OVC065,0.00,VWS V14.01,2013-01-07 02:36:00,
2013-01-06 21:41:00,38.5,27.8,29.96,SW,226,0.0,0.0,65,0.00,,OVC065,0.00,VWS V14.01,2013-01-07 02:41:00,
2013-01-06 21:46:00,38.3,27.6,29.96,SW,226,0.0,0.0,65,0.00,,OVC065,0.00,VWS V14.01,2013-01-07 02:46:00,
2013-01-06 21:51:00,38.2,27.5,29.97,SW,226,0.0,0.0,65,0.00,,OVC065,0.00,VWS V14.01,2013-01-07 02:51:00,
2013-01-06 21:56:00,37.9,27.6,29.97,SW,226,0.0,0.0,66,0.00,,OVC065,0.00,VWS V14.01,2013-01-07 02:56:00,
2013-01-06 22:01:00,37.8,27.5,29.97,SW,226,0.0,0.0,66,0.00,,OVC065,0.00,VWS V14.01,2013-01-07 03:01:00,
2013-01-06 22:06:00,37.6,27.6,29.97,SW,226,0.0,0.0,67,0.00,,OVC065,0.00,VWS V14.01,2013-01-07 03:06:00,
2013-01-06 22:11:00,37.5,27.2,29.97,SW,226,0.0,0.0,66,0.00,,OVC065,0.00,VWS V14.01,2013-01-07 03:11:00,
2013-01-06 22:16:00,37.3,27.4,29.97,SW,226,0.0,0.0,67,0.00,,OVC065,0.00,VWS V14.01,2013-01-07 03:16:00,
2013-01-06 22:21:00,37.2,27.3,29.97,SW,226,0.0,0.0,67,0.00,,OVC065,0.00,VWS V14.01,2013-01-07 03:21:00,
2013-01-06 22:26:00,37.2,27.3,29.97,SW,226,0.0,0.0,67,0.00,,OVC065,0.00,VWS V14.01,2013-01-07 03:26:00,
2013-01-06 22:31:00,37.2,27.6,29.97,SW,226,0.0,0.0,68,0.00,,OVC065,0.00,VWS V14.01,2013-01-07 03:31:00,
2013-01-06 22:36:00,37.2,27.3,29.97,SW,226,0.0,0.0,67,0.00,,OVC065,0.00,VWS V14.01,2013-01-07 03:36:00,
2013-01-06 22:41:00,37.2,27.3,29.97,SW,226,0.0,0.0,67,0.00,,OVC065,0.00,VWS V14.01,2013-01-07 03:41:00,
2013-01-06 22:46:00,37.2,27.3,29.97,SW,226,0.0,1.0,67,0.00,,OVC065,0.00,VWS V14.01,2013-01-07 03:46:00,
2013-01-06 22:51:00,37.2,27.3,29.98,SW,226,0.0,0.0,67,0.00,,OVC065,0.00,VWS V14.01,2013-01-07 03:51:00,
2013-01-06 22:56:00,37.2,27.3,29.98,SW,226,0.0,0.0,67,0.00,,OVC065,0.00,VWS V14.01,2013-01-07 03:56:00,
2013-01-06 23:01:00,37.5,27.9,29.98,West,266,0.0,0.0,68,0.00,,OVC065,0.00,VWS V14.01,2013-01-07 04:01:00,
2013-01-06 23:06:00,38.2,27.9,29.98,West,272,3.0,3.0,66,0.00,,OVC065,0.00,VWS V14.01,2013-01-07 04:06:00,
2013-01-06 23:11:00,38.8,28.1,29.98,West,279,2.0,2.0,65,0.00,,OVC065,0.00,VWS V14.01,2013-01-07 04:11:00,
2013-01-06 23:16:00,39.3,28.2,29.98,West,276,1.0,2.0,64,0.00,,OVC065,0.00,VWS V14.01,2013-01-07 04:16:00,
2013-01-06 23:21:00,39.6,28.1,29.98,WSW,252,3.0,3.0,63,0.00,,OVC065,0.00,VWS V14.01,2013-01-07 04:21:00,
2013-01-06 23:26:00,39.9,28.3,29.98,West,273,4.0,5.0,63,0.00,,OVC065,0.00,VWS V14.01,2013-01-07 04:26:00,
2013-01-06 23:31:00,39.9,28.0,29.98,West,281,0.0,0.0,62,0.00,,OVC065,0.00,VWS V14.01,2013-01-07 04:31:00,
2013-01-06 23:36:00,39.6,27.7,29.99,WNW,293,0.0,1.0,62,0.00,,OVC050,0.00,VWS V14.01,2013-01-07 04:36:00,
2013-01-06 23:41:00,39.3,27.8,29.99,WSW,248,1.0,1.0,63,0.00,,OVC050,0.00,VWS V14.01,2013-01-07 04:41:00,
2013-01-06 23:46:00,39.1,27.6,29.99,WSW,250,1.0,2.0,63,0.00,,OVC050,0.00,VWS V14.01,2013-01-07 04:46:00,
2013-01-06 23:51:00,38.8,27.7,29.99,WSW,250,0.0,1.0,64,0.00,,OVC050,0.00,VWS V14.01,2013-01-07 04:51:00,
2013-01-06 23:56:00,38.5,27.4,29.99,West,259,0.0,0.0,64,0.00,,FEW050,0.00,VWS V14.01,2013-01-07 04:56:00,